GW6314 Weather Reports


time (UTC)temp
C
wind
direction
speed
KPH
gust
KPH
rain 1hr
cm
rain 24hr
cm
rain mn
cm
humidity
%
barometer
mb
20260508171940 16 186 6.4 9.7 0.00 0.00 0.00 32 1024.4
20260508171436 16 223 4.8 11.3 0.00 0.00 0.00 33 1024.5
20260508170933 15 181 14.5 14.5 0.00 0.00 0.00 37 1024.7
20260508170430 15 179 3.2 12.9 0.00 0.00 0.00 36 1024.5
20260508165915 14 200 12.9 16.1 0.00 0.00 0.00 45 1024.5
20260508165414 14 200 12.9 16.1 0.00 0.00 0.00 45 1024.5
20260508164909 14 193 12.9 16.1 0.00 0.00 0.00 45 1024.5
20260508164407 14 179 11.3 14.5 0.00 0.00 0.00 45 1024.7
20260508163903 13 190 11.3 12.9 0.00 0.00 0.00 46 1024.7
20260508163402 13 195 14.5 16.1 0.00 0.00 0.00 47 1024.7
20260508162856 13 203 11.3 14.5 0.00 0.00 0.00 49 1024.7
20260508162354 13 204 11.3 16.1 0.00 0.00 0.00 50 1024.7
20260508161851 13 197 9.7 12.9 0.00 0.00 0.00 50 1025.0
20260508161348 12 185 6.4 9.7 0.00 0.00 0.00 48 1025.0
20260508160845 12 148 6.4 6.4 0.00 0.00 0.00 57 1024.9
20260508160344 12 196 3.2 4.8 0.00 0.00 0.00 57 1025.1
20260508155840 12 208 1.6 4.8 0.00 0.00 0.00 59 1025.1
20260508155337 12 185 0.0 1.6 0.00 0.00 0.00 58 1024.9
20260508154834 12 187 4.8 6.4 0.00 0.00 0.00 56 1024.9
20260508154332 12 189 4.8 4.8 0.00 0.00 0.00 54 1025.3
20260508153828 12 190 3.2 3.2 0.00 0.00 0.00 55 1025.0
20260508153326 12 173 1.6 1.6 0.00 0.00 0.00 55 1024.9
20260508152821 11 195 1.6 1.6 0.00 0.00 0.00 55 1025.3
20260508152318 11 229 0.0 3.2 0.00 0.00 0.00 57 1025.0
20260508151814 12 259 4.8 6.4 0.00 0.00 0.00 56 1024.9
20260508151311 11 113 0.0 1.6 0.00 0.00 0.00 56 1025.3
20260508150808 11 93 3.2 4.8 0.00 0.00 0.00 56 1025.0
20260508150305 11 173 1.6 1.6 0.00 0.00 0.00 57 1025.0
20260508145801 11 141 1.6 1.6 0.00 0.00 0.00 59 1025.0
20260508145257 10 190 1.6 3.2 0.00 0.00 0.00 60 1025.1
20260508144754 10 189 0.0 3.2 0.00 0.00 0.00 62 1025.1
20260508144252 10 244 1.6 1.6 0.00 0.00 0.00 60 1025.1
20260508143749 10 202 1.6 1.6 0.00 0.00 0.00 59 1025.1
20260508143246 10 184 1.6 3.2 0.00 0.00 0.00 59 1025.0
20260508142742 8 224 0.0 0.0 0.00 0.00 0.00 61 1025.4
20260508142239 8 194 3.2 3.2 0.00 0.00 0.00 64 1025.1
20260508141736 8 261 3.2 3.2 0.00 0.00 0.00 65 1025.0
20260508141233 9 256 3.2 4.8 0.00 0.00 0.00 63 1025.3
20260508140730 9 191 0.0 1.6 0.00 0.00 0.00 64 1025.0
20260508140227 8 195 0.0 0.0 0.00 0.00 0.00 69 1025.0
20260508135723 7 170 0.0 1.6 0.00 0.00 0.00 71 1025.1
20260508135219 8 128 3.2 3.2 0.00 0.00 0.00 69 1024.9
20260508134715 8 108 0.0 1.6 0.00 0.00 0.00 69 1025.1
20260508134213 8 155 0.0 1.6 0.00 0.00 0.00 69 1025.1
20260508133709 7 122 1.6 3.2 0.00 0.00 0.00 70 1025.1
20260508133207 6 298 0.0 0.0 0.00 0.00 0.00 75 1024.9
20260508132705 6 344 3.2 3.2 0.00 0.00 0.00 76 1025.1
20260508132202 6 2 4.8 6.4 0.00 0.00 0.00 76 1024.9
20260508131657 5 343 4.8 6.4 0.00 0.00 0.00 78 1024.8
20260508131154 6 350 6.4 9.7 0.00 0.00 0.00 76 1024.5
20260508130650 6 5 6.4 9.7 0.00 0.00 0.00 76 1024.8
20260508130148 6 17 6.4 6.4 0.00 0.00 0.00 75 1024.9
20260508125643 5 3 3.2 4.8 0.00 0.00 0.00 74 1024.8
20260508125140 5 314 3.2 4.8 0.00 0.00 0.00 76 1024.5
20260508124638 5 308 3.2 4.8 0.00 0.00 0.00 78 1024.7
20260508124135 4 279 3.2 3.2 0.00 0.00 0.00 80 1024.8
20260508123633 4 215 3.2 3.2 0.00 0.00 0.00 80 1024.4
20260508123130 4 248 0.0 1.6 0.00 0.00 0.00 79 1024.5
20260508122626 4 290 0.0 0.0 0.00 0.00 0.00 78 1024.7
20260508122124 5 290 0.0 0.0 0.00 0.00 0.00 77 1024.4
20260508121622 5 291 0.0 1.6 0.00 0.00 0.00 77 1024.4
20260508121120 5 341 1.6 3.2 0.00 0.00 0.00 77 1024.3
20260508120617 5 340 1.6 3.2 0.00 0.00 0.00 76 1024.3
20260508120115 5 280 0.0 1.6 0.00 0.00 0.00 76 1024.3
20260508115612 5 275 0.0 1.6 0.00 0.00 0.00 76 1024.3
20260508115109 5 290 0.0 0.0 0.00 0.00 0.00 77 1023.9
20260508114606 5 291 0.0 1.6 0.00 0.00 0.00 79 1023.9
20260508114102 4 315 1.6 3.2 0.00 0.00 0.00 81 1024.1
20260508113559 4 264 0.0 0.0 0.00 0.00 0.00 81 1023.8
20260508113058 4 264 0.0 0.0 0.00 0.00 0.00 81 1023.9
20260508112553 4 264 0.0 0.0 0.00 0.00 0.00 80 1023.7
20260508112050 4 263 0.0 0.0 0.00 0.00 0.00 80 1024.1
20260508111547 4 263 0.0 0.0 0.00 0.00 0.00 79 1023.8
20260508111044 4 263 0.0 0.0 0.00 0.00 0.00 79 1023.9
20260508110542 5 277 0.0 0.0 0.00 0.00 0.00 78 1023.9
20260508110038 5 292 0.0 0.0 0.00 0.00 0.00 76 1023.8
20260508105533 5 292 0.0 0.0 0.00 0.00 0.00 76 1023.7
20260508105031 5 294 1.6 1.6 0.00 0.00 0.00 76 1023.8
20260508104528 5 351 1.6 1.6 0.00 0.00 0.00 76 1023.8
20260508104024 5 286 1.6 1.6 0.00 0.00 0.00 77 1023.8
20260508103521 5 299 3.2 3.2 0.00 0.00 0.00 76 1023.8
20260508103019 5 310 3.2 4.8 0.00 0.00 0.00 76 1023.8
20260508102517 5 290 3.2 4.8 0.00 0.00 0.00 76 1023.8
20260508102014 5 277 3.2 3.2 0.00 0.00 0.00 77 1023.9
20260508101511 5 5 1.6 3.2 0.00 0.00 0.00 76 1023.8
20260508101008 5 145 0.0 1.6 0.00 0.00 0.00 74 1023.7
20260508100507 5 177 1.6 1.6 0.00 0.00 0.00 74 1023.7
20260508100003 5 268 0.0 0.0 0.00 0.00 0.00 73 1023.6
20260508095500 5 269 0.0 0.0 0.00 0.00 0.00 73 1023.7
20260508094957 5 275 1.6 3.2 0.00 0.00 0.00 74 1023.5
20260508094454 5 292 0.0 1.6 0.00 0.00 0.00 75 1023.6
20260508093951 5 298 0.0 1.6 0.00 0.00 0.00 77 1023.6
20260508093448 5 296 1.6 1.6 0.00 0.00 0.00 77 1023.6
20260508092946 5 319 1.6 3.2 0.00 0.00 0.00 75 1023.5
20260508092443 6 358 3.2 3.2 0.00 0.00 0.00 75 1023.6
20260508091942 6 228 0.0 0.0 0.00 0.00 0.00 75 1023.3
20260508091438 6 228 0.0 0.0 0.00 0.00 0.00 74 1023.3
20260508090935 6 234 0.0 1.6 0.00 0.00 0.00 73 1023.8
20260508090434 6 236 1.6 1.6 0.00 0.00 0.00 73 1023.6
20260508085929 6 307 4.8 4.8 0.00 0.00 0.00 71 1023.3
20260508085426 6 346 6.4 6.4 0.00 0.00 0.00 68 1023.6
20260508084923 6 306 3.2 4.8 0.00 0.00 0.00 66 1023.5
20260508084419 7 266 3.2 4.8 0.00 0.00 0.00 66 1023.6
20260508083918 7 241 1.6 4.8 0.00 0.00 0.00 65 1023.5
20260508083415 7 235 3.2 9.7 0.00 0.00 0.00 67 1023.7
20260508082914 7 221 0.0 1.6 0.00 0.00 0.00 68 1023.6
20260508082412 6 217 1.6 4.8 0.00 0.00 0.00 72 1023.6
20260508081910 6 276 3.2 4.8 0.00 0.00 0.00 73 1023.5
20260508081406 6 233 0.0 1.6 0.00 0.00 0.00 72 1023.7
20260508080903 6 244 0.0 0.0 0.00 0.00 0.00 69 1023.7
20260508080401 7 249 0.0 0.0 0.00 0.00 0.00 66 1023.6
20260508075857 7 254 0.0 0.0 0.00 0.00 0.00 66 1023.5
20260508075354 7 275 0.0 0.0 0.00 0.00 0.00 67 1023.3
20260508074852 7 305 1.6 1.6 0.00 0.00 0.00 66 1023.6
20260508074349 7 285 3.2 3.2 0.00 0.00 0.00 67 1023.5
20260508073846 7 287 1.6 3.2 0.00 0.00 0.00 65 1023.6
20260508073344 7 321 4.8 4.8 0.00 0.00 0.00 62 1023.6
20260508072840 8 262 1.6 3.2 0.00 0.00 0.00 61 1023.6
20260508072336 8 252 3.2 6.4 0.00 0.00 0.00 60 1023.7
20260508071834 8 268 3.2 4.8 0.00 0.00 0.00 59 1023.7
20260508071332 8 272 4.8 4.8 0.00 0.00 0.00 62 1023.8
20260508070829 8 279 4.8 6.4 0.00 0.00 0.00 64 1023.7
20260508070328 7 244 1.6 3.2 0.00 0.00 0.00 63 1023.6
20260508065825 7 251 1.6 1.6 0.00 0.00 0.00 65 1023.6
20260508065323 7 255 0.0 0.0 0.00 0.00 0.00 65 1023.7
20260508064821 7 260 0.0 0.0 0.00 0.00 0.00 64 1023.7
20260508064318 8 284 0.0 1.6 0.00 0.00 0.00 64 1023.6
20260508063815 8 255 0.0 1.6 0.00 0.00 0.00 62 1023.6
20260508063313 8 339 3.2 4.8 0.00 0.00 0.00 62 1023.8
20260508062810 8 257 3.2 4.8 0.00 0.00 0.00 62 1023.7
20260508062308 8 260 4.8 4.8 0.00 0.00 0.00 62 1023.5
20260508061804 8 276 6.4 6.4 0.00 0.00 0.00 61 1023.7
20260508061302 8 269 3.2 4.8 0.00 0.00 0.00 63 1023.6
20260508060758 8 257 3.2 3.2 0.00 0.00 0.00 63 1023.5
20260508060256 8 250 0.0 1.6 0.00 0.00 0.00 62 1023.3
20260508055751 8 262 1.6 1.6 0.00 0.00 0.00 62 1023.3
20260508055248 9 277 0.0 0.0 0.00 0.00 0.00 59 1023.1
20260508054745 9 334 1.6 4.8 0.00 0.00 0.00 56 1023.2
20260508054243 8 8 4.8 4.8 0.00 0.00 0.00 60 1023.1
20260508053740 8 356 3.2 4.8 0.00 0.00 0.00 61 1023.1
20260508053237 9 23 1.6 1.6 0.00 0.00 0.00 62 1023.1
20260508052734 10 262 0.0 0.0 0.00 0.00 0.00 56 1023.0
20260508052231 9 297 1.6 3.2 0.00 0.00 0.00 56 1023.0
20260508051727 10 257 1.6 1.6 0.00 0.00 0.00 59 1023.1
20260508051223 10 270 0.0 0.0 0.00 0.00 0.00 55 1023.1
20260508050719 10 193 1.6 1.6 0.00 0.00 0.00 56 1023.1
20260508050217 10 297 3.2 3.2 0.00 0.00 0.00 53 1022.9
20260508045712 10 292 0.0 0.0 0.00 0.00 0.00 55 1023.1
20260508045210 10 292 0.0 1.6 0.00 0.00 0.00 53 1023.1
20260508044707 10 284 1.6 1.6 0.00 0.00 0.00 54 1023.1
20260508044204 10 286 6.4 6.4 0.00 0.00 0.00 58 1023.1
20260508043659 10 271 4.8 4.8 0.00 0.00 0.00 61 1023.1
20260508043158 10 248 4.8 4.8 0.00 0.00 0.00 61 1023.0
20260508042654 11 247 3.2 6.4 0.00 0.00 0.00 57 1023.0
20260508042151 11 206 1.6 1.6 0.00 0.00 0.00 49 1023.3
20260508041647 10 132 1.6 3.2 0.00 0.00 0.00 53 1023.2
20260508041145 10 10 1.6 4.8 0.00 0.00 0.00 58 1023.0
20260508040641 10 6 6.4 9.7 0.00 0.00 0.00 60 1023.0
20260508040139 11 8 4.8 4.8 0.00 0.00 0.00 52 1023.2
20260508035636 12 13 1.6 4.8 0.00 0.00 0.00 45 1023.0
20260508035133 12 26 4.8 9.7 0.00 0.00 0.00 43 1022.6
20260508034630 12 284 6.4 12.9 0.00 0.00 0.00 42 1023.0
20260508034127 12 266 4.8 9.7 0.00 0.00 0.00 44 1023.1
20260508033624 12 223 1.6 4.8 0.00 0.00 0.00 44 1023.2
20260508033122 12 345 6.4 9.7 0.00 0.00 0.00 46 1022.7
20260508032618 13 335 9.7 11.3 0.00 0.00 0.00 40 1022.7
20260508032116 13 358 6.4 9.7 0.00 0.00 0.00 40 1022.9
20260508031613 13 310 9.7 12.9 0.00 0.00 0.00 40 1022.6
20260508031109 13 327 9.7 12.9 0.00 0.00 0.00 40 1022.6
20260508030606 13 316 8.0 11.3 0.00 0.00 0.00 41 1022.7
20260508030104 13 318 6.4 6.4 0.00 0.00 0.00 42 1022.5
20260508025559 13 319 4.8 6.4 0.00 0.00 0.00 41 1022.6
20260508025057 14 323 3.2 3.2 0.00 0.00 0.00 39 1022.7
20260508024553 14 332 1.6 1.6 0.00 0.00 0.00 40 1022.4
20260508024050 14 293 3.2 4.8 0.00 0.00 0.00 39 1022.5
20260508023546 15 324 4.8 6.4 0.00 0.00 0.00 38 1022.2
20260508023044 15 310 8.0 11.3 0.00 0.00 0.00 36 1022.5
20260508022539 15 292 4.8 6.4 0.00 0.00 0.00 36 1022.5
20260508022037 16 303 6.4 9.7 0.00 0.00 0.00 35 1022.2
20260508021532 16 307 4.8 9.7 0.00 0.00 0.00 34 1022.2
20260508021028 16 276 4.8 4.8 0.00 0.00 0.00 32 1022.1
20260508020526 17 290 4.8 4.8 0.00 0.00 0.00 31 1022.2
20260508020024 17 252 6.4 9.7 0.00 0.00 0.00 31 1022.1
20260508015521 17 272 4.8 12.9 0.00 0.00 0.00 29 1022.1
20260508015018 18 268 12.9 14.5 0.00 0.00 0.00 29 1022.1
20260508014514 18 292 12.9 17.7 0.00 0.00 0.00 29 1022.2
20260508014010 18 278 8.0 12.9 0.00 0.00 0.00 28 1022.5
20260508013507 18 270 11.3 12.9 0.00 0.00 0.00 27 1022.1
20260508013005 18 314 9.7 12.9 0.00 0.00 0.00 27 1022.0
20260508012501 18 269 6.4 9.7 0.00 0.00 0.00 27 1022.1
20260508011958 18 293 6.4 9.7 0.00 0.00 0.00 27 1022.0
20260508011456 18 284 8.0 25.7 0.00 0.00 0.00 27 1022.2
20260508010953 18 247 16.1 25.7 0.00 0.00 0.00 26 1022.1
20260508010450 18 283 9.7 16.1 0.00 0.00 0.00 26 1022.1
20260508005948 19 273 16.1 20.9 0.00 0.00 0.00 26 1022.2
20260508005444 19 275 14.5 16.1 0.00 0.00 0.00 26 1022.2
20260508004941 19 268 11.3 14.5 0.00 0.00 0.00 26 1022.4
20260508004437 19 294 11.3 14.5 0.00 0.00 0.00 26 1022.4
20260508003934 19 280 17.7 22.5 0.00 0.00 0.00 27 1022.0
20260508003430 18 304 20.9 29.0 0.00 0.00 0.00 26 1022.4
20260508002928 18 305 9.7 12.9 0.00 0.00 0.00 27 1022.6
20260508002424 18 321 12.9 17.7 0.00 0.00 0.00 27 1022.5
20260508001920 18 266 3.2 6.4 0.00 0.00 0.00 26 1022.5
20260508001417 18 257 3.2 3.2 0.00 0.00 0.00 30 1022.6
20260508000913 18 2 9.7 11.3 0.00 0.00 0.00 31 1022.7
20260508000412 18 18 6.4 11.3 0.00 0.00 0.00 31 1022.6
20260507235906 18 11 3.2 4.8 0.00 0.00 0.00 29 1022.6
20260507235403 18 262 4.8 9.7 0.00 0.00 0.00 29 1022.6
20260507234900 18 292 11.3 12.9 0.00 0.00 0.00 28 1022.5
20260507234359 18 279 8.0 11.3 0.00 0.00 0.00 29 1022.9
20260507233854 18 287 6.4 17.7 0.00 0.00 0.00 28 1023.0
20260507233351 18 248 6.4 9.7 0.00 0.00 0.00 28 1022.6
20260507232849 18 315 6.4 14.5 0.00 0.00 0.00 28 1023.0
20260507232345 18 335 9.7 22.5 0.00 0.00 0.00 29 1022.9
20260507231843 18 315 12.9 14.5 0.00 0.00 0.00 29 1023.0
20260507231339 18 298 19.3 20.9 0.00 0.00 0.00 29 1023.1
20260507230835 18 336 4.8 14.5 0.00 0.00 0.00 28 1023.0
20260507230333 18 304 24.1 29.0 0.00 0.00 0.00 29 1023.1
20260507225832 18 11 17.7 27.4 0.00 0.00 0.00 30 1023.2
20260507225329 18 286 8.0 20.9 0.00 0.00 0.00 27 1023.5
20260507224825 18 316 6.4 9.7 0.00 0.00 0.00 27 1023.1
20260507224322 18 343 4.8 16.1 0.00 0.00 0.00 29 1023.1
20260507223818 19 298 17.7 29.0 0.00 0.00 0.00 27 1023.3
20260507223314 20 293 8.0 14.5 0.00 0.00 0.00 26 1023.3
20260507222812 19 283 8.0 16.1 0.00 0.00 0.00 27 1023.6
20260507222308 19 254 4.8 17.7 0.00 0.00 0.00 27 1023.3
20260507221805 20 252 14.5 17.7 0.00 0.00 0.00 27 1023.5
20260507221301 19 271 8.0 11.3 0.00 0.00 0.00 29 1023.2
20260507220757 18 338 20.9 25.7 0.00 0.00 0.00 29 1023.3
20260507220256 18 294 3.2 11.3 0.00 0.00 0.00 29 1023.6
20260507215752 18 357 9.7 17.7 0.00 0.00 0.00 28 1023.5
20260507215250 18 344 9.7 14.5 0.00 0.00 0.00 31 1023.5
20260507214746 18 357 14.5 27.4 0.00 0.00 0.00 31 1023.5
20260507214244 18 278 20.9 25.7 0.00 0.00 0.00 30 1023.6
20260507213739 18 319 11.3 17.7 0.00 0.00 0.00 30 1023.8
20260507213236 18 284 14.5 24.1 0.00 0.00 0.00 30 1023.9
20260507212732 18 328 8.0 16.1 0.00 0.00 0.00 30 1023.7
20260507212229 18 253 17.7 27.4 0.00 0.00 0.00 29 1024.1
20260507211726 19 291 19.3 25.7 0.00 0.00 0.00 29 1023.7
20260507211222 19 1 9.7 12.9 0.00 0.00 0.00 29 1023.6
20260507210719 18 194 6.4 12.9 0.00 0.00 0.00 28 1023.8
20260507210216 18 201 9.7 24.1 0.00 0.00 0.00 28 1023.8
20260507205712 18 273 9.7 20.9 0.00 0.00 0.00 29 1023.7
20260507205209 18 339 4.8 14.5 0.00 0.00 0.00 31 1024.1
20260507204705 18 260 16.1 17.7 0.00 0.00 0.00 29 1023.9
20260507204203 18 253 14.5 25.7 0.00 0.00 0.00 30 1024.1
20260507203701 17 226 12.9 22.5 0.00 0.00 0.00 30 1023.8
20260507203158 17 246 12.9 25.7 0.00 0.00 0.00 29 1023.8
20260507202653 17 220 16.1 16.1 0.00 0.00 0.00 32 1024.2
20260507202150 18 114 6.4 6.4 0.00 0.00 0.00 28 1024.1
20260507201645 17 196 1.6 6.4 0.00 0.00 0.00 30 1024.2
20260507201142 17 126 8.0 11.3 0.00 0.00 0.00 29 1024.1
20260507200638 17 119 8.0 9.7 0.00 0.00 0.00 29 1024.3
20260507200135 17 92 1.6 4.8 0.00 0.00 0.00 28 1024.1
20260507195631 17 73 1.6 3.2 0.00 0.00 0.00 31 1024.1
20260507195128 17 89 1.6 4.8 0.00 0.00 0.00 31 1024.5
20260507194626 16 112 3.2 3.2 0.00 0.00 0.00 31 1024.4
20260507194120 16 155 1.6 3.2 0.00 0.00 0.00 32 1024.5
20260507193618 16 204 4.8 6.4 0.00 0.00 0.00 34 1024.5
20260507193115 16 215 3.2 6.4 0.00 0.00 0.00 34 1024.7
20260507192611 16 187 12.9 14.5 0.00 0.00 0.00 31 1024.5
20260507192108 17 204 14.5 22.5 0.00 0.00 0.00 33 1024.7
20260507191603 16 222 6.4 11.3 0.00 0.00 0.00 30 1024.7
20260507191101 16 232 6.4 12.9 0.00 0.00 0.00 36 1024.5
20260507190558 15 209 17.7 25.7 0.00 0.00 0.00 34 1024.7
20260507190057 15 196 12.9 22.5 0.00 0.00 0.00 36 1024.5
20260507185555 15 211 14.5 14.5 0.00 0.00 0.00 36 1024.8
20260507185051 15 200 17.7 22.5 0.00 0.00 0.00 35 1024.9
20260507184549 15 184 9.7 17.7 0.00 0.00 0.00 38 1024.9
20260507184047 14 213 12.9 17.7 0.00 0.00 0.00 41 1024.9
20260507183542 15 208 12.9 16.1 0.00 0.00 0.00 35 1024.9
20260507183040 14 215 12.9 25.7 0.00 0.00 0.00 35 1025.1
20260507182536 14 202 14.5 16.1 0.00 0.00 0.00 37 1025.1
20260507182032 14 208 9.7 16.1 0.00 0.00 0.00 35 1024.9
20260507181529 13 186 16.1 17.7 0.00 0.00 0.00 37 1025.1
20260507181025 13 187 12.9 14.5 0.00 0.00 0.00 34 1025.0
20260507180522 13 177 16.1 22.5 0.00 0.00 0.00 34 1025.3
20260507180019 14 198 19.3 24.1 0.00 0.00 0.00 37 1025.5
20260507175515 13 197 19.3 22.5 0.00 0.00 0.00 40 1025.3
20260507175013 13 202 14.5 22.5 0.00 0.00 0.00 39 1025.3
20260507174510 13 187 17.7 20.9 0.00 0.00 0.00 38 1025.6
20260507174007 12 205 19.3 30.6 0.00 0.00 0.00 37 1025.5
20260507173504 12 193 16.1 24.1 0.00 0.00 0.00 38 1025.5
20260507173001 13 190 17.7 25.7 0.00 0.00 0.00 41 1025.4
20260507172457 12 190 17.7 25.7 0.00 0.00 0.00 36 1025.6